SOYUZ-MS 08

Last updated on Thu Oct 04 2018 00:00:46 GMT+0000 (Coordinated Universal Time)

1 43238U 18026A 18275.42675150 .00001750 00000-0 34091-4 0 9994 2 43238 51.6422 204.2981 0003748 230.8661 237.0329 15.53761941135193

Satellite not in orbit

SOYUZ-MS 08